Flag for United Kingdom Weather past 2 weeks in Edinburgh, Scotland, United Kingdom

Now
52 °F

Clear.


Feels Like: 52 °F
Forecast: 53 / 60 °F
Wind: No wind

Location: Edinburgh Airport

Current Time: Aug 2, 2014 at 12:27:30 AM

Latest Report: Aug 1, 2014 at 11:50 PM


Visibility: 10 mi

Pressure: 29.65 "Hg

Humidity: 94%

Dew point: 50 °F

Location of EdinburghLocation

Historic Weather in Edinburgh — Graph

°F

Edinburgh temperature yesterday

Maximum temperature yesterday: 68 °F (at 4:20 PM)
Minimum temperature yesterday: 52 °F (at 4:20 AM)
Average temperature yesterday: 60 °F

Past Weeks' High & Low Weather Summary

 TemperatureHumidityPressure
High75 °F (Jul 22, 2:50 PM)100% (Jul 18, 1:50 AM)30.30 "Hg (Jul 18, 1:50 AM)
Low46 °F (Jul 28, 1:20 AM)46% (Aug 1, 4:50 PM)29.62 "Hg (Aug 1, 4:20 PM)
Average61 °F83%29.99 "Hg
* Reported Jul 17 11:20 PM — Aug 1 11:20 PM, Edinburgh, Weather by CustomWeather, © 2014

Note: Actual official high and low records may vary slightly from our data, if they occured in-between our weather recording intervals... More about our weather records

Advertising

Edinburgh weather history for previous 24 hours

 ConditionsComfort  
Time TempWeatherWind HumidityBarometerVisibility
11:20 PM
Aug 1
52 °FClear.No wind94%29.65 "Hg10 mi
10:50 PM54 °FClear.No wind88%29.65 "Hg10 mi
10:20 PM54 °FCool.No wind88%29.65 "HgN/A
9:50 PM57 °FSunny.2 mph88%29.65 "Hg10 mi
9:20 PM57 °FPassing clouds.No wind88%29.65 "HgN/A
8:50 PM59 °FPassing clouds.3 mph82%29.65 "HgN/A
8:20 PM64 °FSunny.5 mph68%29.62 "Hg10 mi
7:50 PM64 °FMild.3 mph64%29.62 "HgN/A
7:20 PM64 °FPassing clouds.3 mph64%29.62 "HgN/A
6:50 PM64 °FPassing clouds.2 mph64%29.62 "HgN/A
6:20 PM64 °FPassing clouds.3 mph60%29.62 "HgN/A
5:50 PM64 °FScattered clouds.3 mph64%29.62 "HgN/A
5:20 PM64 °FScattered clouds.5 mph60%29.62 "HgN/A
4:50 PM68 °FScattered clouds.5 mph46%29.62 "HgN/A
4:20 PM68 °FScattered clouds.5 mph53%29.62 "HgN/A
3:50 PM66 °FScattered clouds.6 mph56%29.65 "HgN/A
3:20 PM66 °FScattered clouds.5 mph52%29.65 "HgN/A
2:50 PM66 °FBroken clouds.5 mph56%29.65 "HgN/A
2:20 PM66 °FScattered clouds.6 mph56%29.65 "HgN/A
1:50 PM66 °FScattered clouds.6 mph60%29.65 "HgN/A
1:20 PM64 °FPassing clouds.3 mph60%29.65 "HgN/A
12:50 PM64 °FPassing clouds.3 mph60%29.65 "HgN/A
12:20 PM63 °FPassing clouds.5 mph68%29.65 "HgN/A
11:50 AM63 °FPassing clouds.7 mph68%29.68 "HgN/A
11:20 AM63 °FPassing clouds.8 mph68%29.68 "HgN/A
10:50 AM61 °FPassing clouds.7 mph77%29.68 "HgN/A
10:20 AM61 °FPassing clouds.7 mph77%29.68 "HgN/A
9:50 AM61 °FPassing clouds.8 mph77%29.68 "HgN/A
9:20 AM61 °FPassing clouds.10 mph72%29.68 "HgN/A
8:50 AM59 °FPassing clouds.7 mph82%29.68 "HgN/A
8:20 AM59 °FPassing clouds.7 mph82%29.68 "HgN/A
7:50 AM59 °FSunny.7 mph82%29.68 "Hg10 mi
7:20 AM57 °FPassing clouds.5 mph88%29.68 "HgN/A
6:50 AM55 °FPassing clouds.5 mph94%29.68 "HgN/A
6:20 AM54 °FSunny.3 mph100%29.68 "Hg10 mi
5:50 AM52 °FClear.2 mph100%29.68 "Hg10 mi
5:20 AM52 °FClear.2 mph100%29.68 "Hg10 mi
4:50 AM52 °FFog.No wind94%29.68 "HgN/A
4:20 AM52 °FClear.2 mph100%29.68 "Hg10 mi
3:50 AM55 °FClear.2 mph94%29.68 "Hg10 mi
3:20 AM55 °FCool.3 mph94%29.68 "HgN/A
2:50 AM55 °FClear.5 mph94%29.71 "Hg10 mi
2:20 AM57 °FClear.5 mph88%29.71 "Hg10 mi
1:50 AM57 °FPassing clouds.7 mph88%29.71 "HgN/A
1:20 AM55 °FPassing clouds.No wind94%29.71 "HgN/A
12:50 AM55 °FPassing clouds.2 mph94%29.71 "HgN/A
12:20 AM57 °FOvercast.No wind94%29.71 "HgN/A
Weather by CustomWeather, © 2014

See weather overviewHow to use our weather pages